Location: Unspecified
(33.6682°S, 0.0000°E)
Time: 11:19:52
(UTC+00:00)

Vanguard 1 - Visible Passes

Search period start: 12 June 2021 00:00
Search period end: 22 June 2021 00:00
Orbit: 650 x 3832 km, 34.2° (Epoch: 11 June)

Date Brightness Start Highest point End Pass type
(mag) Time Alt. Az. Time Alt. Az. Time Alt. Az.
12 Jun 13.9 18:59:11 10° W 19:15:37 36° NW 19:35:25 10° NNE visible
13 Jun 13.2 16:56:46 10° WSW 17:11:30 60° NNW 17:33:56 10° NE visible
13 Jun 14.1 19:21:35 10° W 19:36:48 28° NW 19:54:31 10° N visible
14 Jun 13.5 17:18:04 10° W 17:32:51 50° NNW 17:54:32 10° NE visible
14 Jun 14.3 19:44:55 10° W 19:57:58 21° NW 20:12:40 10° N visible
15 Jun 13.7 17:39:34 10° W 17:54:10 42° NNW 18:14:42 10° NNE visible
15 Jun 14.5 20:10:16 10° WNW 20:19:14 14° NW 20:28:50 10° NNW visible
16 Jun 14.0 18:01:25 10° W 18:15:29 33° NW 18:34:22 10° NNE visible
17 Jun 14.3 18:23:49 10° W 18:36:48 26° NW 18:53:21 10° N visible
18 Jun 14.5 18:47:16 10° WNW 18:58:10 18° NW 19:11:13 10° N visible
19 Jun 14.7 19:13:27 10° WNW 19:19:37 12° NW 19:26:20 10° NNW visible
20 Jun 14.2 17:04:24 10° W 17:15:58 29° NNW 17:32:37 10° NNE visible
21 Jun 14.5 17:26:54 10° WNW 17:37:22 22° NW 17:51:23 10° N visible
